Boulder City, NV

2:54 PM PDT on September 23, 2017 (GMT -0700)
Boulder City

Weather History for KBVU - April, 2013

Change the Weather History Date:

Tuesday, April 9, 2013

  Actual Average (KLAS) Record (KLAS)
Temperature  
Mean Temperature 58 °F -  
Max Temperature 66 °F 77 °F 95 °F (1989)
Min Temperature 50 °F 51 °F 32 °F (1953)
Degree Days  
Heating Degree Days 7    
Growing Degree Days 8 (Base 50)    
Moisture  
Dew Point 19 °F    
Average Humidity 23    
Maximum Humidity 35    
Minimum Humidity 13    
Precipitation  
Precipitation 0.00 in - - ()
Sea Level Pressure  
Sea Level Pressure 29.83 in    
Wind  
Wind Speed 19 mph (North)    
Max Wind Speed 26 mph    
Max Gust Speed 38 mph    
Visibility 10 miles    
Events Thunderstorm    
Averages and records for this station are not official NWS values.
T = Trace of Precipitation, MM = Missing Value Source: NWS Daily Summary

Daily Weather History Graph

Daily Weather History Graph

Search for Another Location

Airport or City:

Trip Planner

Search our weather history database for the weather conditions in past years. The results will help you decide how hot, cold, wet, or windy it might be!

Date:

Astronomy

Apr. 09, 2013 Rise Set
Actual Time 6:14 AM PDT 7:08 PM PDT
Civil Twilight 5:47 AM PDT 7:34 PM PDT
Nautical Twilight 5:17 AM PDT 8:05 PM PDT
Astronomical Twilight 4:45 AM PDT 8:37 PM PDT
Moon 5:38 AM PDT (4/9) 6:47 PM PDT (4/9)
Length of Visible Light 13h 46m
Length of Day
12h 54m
Waning Crescent, 0% of the Moon is Illuminated
Apr 9
Waning Crescent
Apr 10
New
Apr 18
First Quarter
Apr 25
Full
May 2
Last Quarter

Hourly Weather History & Observations

Time (PDT) Temp. Dew Point Humidity Pressure Visibility Wind Dir Wind Speed Gust Speed Precip Events Conditions
12:15 AM 53.6 °F 23.0 °F 30% 29.63 in 10.0 mi NNW 18.4 mph 25.3 mph N/A   Partly Cloudy
12:35 AM 53.6 °F 19.4 °F 26% 29.64 in 10.0 mi NNW 17.3 mph 24.2 mph N/A   Clear
12:55 AM 53.6 °F 19.4 °F 26% 29.65 in 10.0 mi NNW 19.6 mph 26.5 mph N/A   Partly Cloudy
1:15 AM 53.6 °F 19.4 °F 26% 29.65 in 10.0 mi NNW 19.6 mph 28.8 mph N/A   Clear
1:35 AM 53.6 °F 19.4 °F 26% 29.65 in 10.0 mi NNW 20.7 mph 25.3 mph N/A   Clear
1:55 AM 53.6 °F 17.6 °F 24% 29.66 in 10.0 mi NW 24.2 mph 32.2 mph N/A   Partly Cloudy
2:15 AM 53.6 °F 17.6 °F 24% 29.66 in 10.0 mi NW 24.2 mph 33.4 mph N/A   Mostly Cloudy
2:35 AM 53.6 °F 17.6 °F 24% 29.66 in 10.0 mi NNW 24.2 mph 34.5 mph N/A Thunderstorm Scattered Clouds
2:55 AM 53.6 °F 17.6 °F 24% 29.66 in 10.0 mi NNW 26.5 mph 38.0 mph N/A   Partly Cloudy
3:15 AM 53.6 °F 17.6 °F 24% 29.67 in 10.0 mi NW 23.0 mph 33.4 mph N/A   Partly Cloudy
3:35 AM 53.6 °F 17.6 °F 24% 29.68 in 10.0 mi NNW 20.7 mph 33.4 mph N/A   Partly Cloudy
3:55 AM 51.8 °F 17.6 °F 26% 29.69 in 10.0 mi NNW 24.2 mph 28.8 mph N/A   Partly Cloudy
4:15 AM 51.8 °F 17.6 °F 26% 29.69 in 10.0 mi NW 19.6 mph 29.9 mph N/A   Clear
4:35 AM 51.8 °F 17.6 °F 26% 29.69 in 10.0 mi NNW 24.2 mph 33.4 mph N/A   Clear
4:55 AM 51.8 °F 15.8 °F 24% 29.71 in 10.0 mi NNW 25.3 mph 33.4 mph N/A   Clear
5:15 AM 51.8 °F 15.8 °F 24% 29.72 in 10.0 mi NNW 20.7 mph 33.4 mph N/A   Scattered Clouds
5:35 AM 51.8 °F 15.8 °F 24% 29.74 in 10.0 mi NNW 21.9 mph 29.9 mph N/A Thunderstorm Mostly Cloudy
5:55 AM 50.0 °F 15.8 °F 26% 29.75 in 10.0 mi NNW 21.9 mph 29.9 mph N/A   Scattered Clouds
6:15 AM 50.0 °F 15.8 °F 26% 29.76 in 10.0 mi NW 19.6 mph 28.8 mph N/A   Partly Cloudy
6:35 AM 50.0 °F 15.8 °F 26% 29.77 in 10.0 mi NNW 20.7 mph 26.5 mph N/A   Clear
6:55 AM 50.0 °F 15.8 °F 26% 29.77 in 10.0 mi NW 21.9 mph 27.6 mph N/A   Clear
7:15 AM 51.8 °F 17.6 °F 26% 29.78 in 10.0 mi NNW 24.2 mph 32.2 mph N/A   Clear
7:35 AM 51.8 °F 17.6 °F 26% 29.78 in 10.0 mi NW 24.2 mph 34.5 mph N/A   Clear
7:55 AM 53.6 °F 17.6 °F 24% 29.80 in 10.0 mi NW 20.7 mph 32.2 mph N/A   Clear
8:15 AM 53.6 °F 17.6 °F 24% 29.81 in 10.0 mi NNW 17.3 mph 28.8 mph N/A   Clear
8:35 AM 55.4 °F 17.6 °F 23% 29.81 in 10.0 mi NNW 15.0 mph - N/A   Clear
8:55 AM 55.4 °F 17.6 °F 23% 29.82 in 10.0 mi NW 19.6 mph 25.3 mph N/A   Clear
9:15 AM 57.2 °F 17.6 °F 21% 29.83 in 10.0 mi NW 17.3 mph 26.5 mph N/A   Clear
9:35 AM 57.2 °F 19.4 °F 23% 29.83 in 10.0 mi NNW 17.3 mph 23.0 mph N/A Thunderstorm Clear
9:55 AM 59.0 °F 17.6 °F 20% 29.84 in 10.0 mi NNW 20.7 mph 31.1 mph N/A   Clear
10:15 AM 59.0 °F 19.4 °F 22% 29.84 in 10.0 mi NNE 18.4 mph 31.1 mph N/A   Clear
10:35 AM 60.8 °F 19.4 °F 20% 29.85 in 10.0 mi North 17.3 mph 29.9 mph N/A   Clear
10:55 AM 60.8 °F 19.4 °F 20% 29.85 in 10.0 mi North 21.9 mph 28.8 mph N/A   Clear
11:15 AM 60.8 °F 17.6 °F 19% 29.85 in 10.0 mi North 20.7 mph 28.8 mph N/A   Clear
11:35 AM 62.6 °F 17.6 °F 18% 29.85 in 10.0 mi North 20.7 mph 29.9 mph N/A   Clear
11:55 AM 62.6 °F 17.6 °F 18% 29.84 in 10.0 mi North 21.9 mph 26.5 mph N/A   Clear
12:15 PM 64.4 °F 17.6 °F 16% 29.84 in 10.0 mi North 19.6 mph 27.6 mph N/A   Clear
12:35 PM 64.4 °F 17.6 °F 16% 29.84 in 10.0 mi NNW 18.4 mph 25.3 mph N/A   Clear
12:55 PM 64.4 °F 17.6 °F 16% 29.84 in 10.0 mi NNW 11.5 mph 24.2 mph N/A   Clear
1:15 PM 64.4 °F 17.6 °F 16% 29.84 in 10.0 mi NNE 11.5 mph 18.4 mph N/A   Partly Cloudy
1:35 PM 64.4 °F 15.8 °F 15% 29.84 in 10.0 mi North 10.4 mph 25.3 mph N/A   Clear
1:55 PM 64.4 °F 15.8 °F 15% 29.84 in 10.0 mi NW 17.3 mph 25.3 mph N/A   Partly Cloudy
2:15 PM 64.4 °F 15.8 °F 15% 29.84 in 10.0 mi North 10.4 mph 28.8 mph N/A   Scattered Clouds
2:35 PM 66.2 °F 15.8 °F 14% 29.84 in 10.0 mi North 12.7 mph 20.7 mph N/A   Scattered Clouds
2:55 PM 64.4 °F 15.8 °F 15% 29.84 in 10.0 mi NW 12.7 mph 23.0 mph N/A   Mostly Cloudy
3:15 PM 66.2 °F 15.8 °F 14% 29.83 in 10.0 mi North 12.7 mph 20.7 mph N/A   Mostly Cloudy
3:35 PM 66.2 °F 14.0 °F 13% 29.83 in 10.0 mi North 11.5 mph 25.3 mph N/A   Scattered Clouds
3:55 PM 66.2 °F 14.0 °F 13% 29.83 in 10.0 mi NNW 10.4 mph 23.0 mph N/A   Mostly Cloudy
4:15 PM 66.2 °F 14.0 °F 13% 29.83 in 10.0 mi North 10.4 mph 17.3 mph N/A   Mostly Cloudy
4:35 PM 66.2 °F 19.4 °F 17% 29.83 in 10.0 mi NNE 13.8 mph 24.2 mph N/A   Mostly Cloudy
4:55 PM 66.2 °F 19.4 °F 17% 29.84 in 10.0 mi NE 19.6 mph 25.3 mph N/A   Mostly Cloudy
5:15 PM 64.4 °F 19.4 °F 18% 29.85 in 10.0 mi NE 15.0 mph - N/A   Mostly Cloudy
5:35 PM 64.4 °F 23.0 °F 21% 29.86 in 10.0 mi NE 16.1 mph 23.0 mph N/A   Overcast
5:55 PM 62.6 °F 23.0 °F 22% 29.86 in 10.0 mi NE 19.6 mph 25.3 mph N/A   Mostly Cloudy
6:15 PM 62.6 °F 23.0 °F 22% 29.87 in 10.0 mi NNE 18.4 mph 25.3 mph N/A   Partly Cloudy
6:35 PM 60.8 °F 24.8 °F 25% 29.88 in 10.0 mi NE 19.6 mph 24.2 mph N/A   Scattered Clouds
6:55 PM 59.0 °F 24.8 °F 27% 29.89 in 10.0 mi NNE 16.1 mph - N/A   Partly Cloudy
7:15 PM 59.0 °F 26.6 °F 29% 29.89 in 10.0 mi NE 18.4 mph 24.2 mph N/A   Clear
7:55 PM 57.2 °F 26.6 °F 31% 29.92 in 10.0 mi NE 19.6 mph 35.7 mph N/A   Mostly Cloudy
8:15 PM 57.2 °F 26.6 °F 31% 29.94 in 10.0 mi NE 18.4 mph - N/A   Scattered Clouds
8:35 PM 57.2 °F 24.8 °F 29% 29.96 in 10.0 mi NNE 21.9 mph 29.9 mph N/A   Clear
8:55 PM 55.4 °F 24.8 °F 31% 29.99 in 10.0 mi NNE 24.2 mph 33.4 mph N/A   Clear
9:15 PM 55.4 °F 26.6 °F 33% 30.00 in 10.0 mi NE 17.3 mph - N/A   Clear
9:35 PM 55.4 °F 23.0 °F 29% 30.00 in 10.0 mi NNE 17.3 mph - N/A   Clear
9:55 PM 55.4 °F 23.0 °F 29% 30.02 in 10.0 mi NNE 15.0 mph - N/A   Clear
10:15 PM 53.6 °F 24.8 °F 33% 30.03 in 10.0 mi NNE 17.3 mph 23.0 mph N/A   Clear
10:35 PM 53.6 °F 23.0 °F 30% 30.03 in 10.0 mi NNE 17.3 mph - N/A   Clear
10:55 PM 53.6 °F 24.8 °F 33% 30.05 in 10.0 mi NNE 17.3 mph - N/A   Clear
11:15 PM 53.6 °F 24.8 °F 33% 30.05 in 10.0 mi NNE 15.0 mph - N/A   Clear
11:35 PM 51.8 °F 23.0 °F 33% 30.06 in 10.0 mi NE 11.5 mph - N/A   Clear
11:55 PM 51.8 °F 24.8 °F 35% 30.07 in 10.0 mi NNE 9.2 mph - N/A   Clear